Terminal Aerodrome Forecast
Issued by NWS Columbia, SC

Home | Current Version | Previous Version | Text Only | Print | Product List | Glossary On
Versions: 1 2 3 4 5 6 7 8 9 10 11 12 13 14 15 16 17 18 19 20 21 22 23 24 25 26 27 28 29 30 31 32 33 34 35 36 37 38 39 40 41
000
FTAK31 PAJN 180500
TAFAGS
TAF
PAGS 180538Z 1806/1906 VRB03KT P6SM VCFG FEW002 BKN100
     FM181100 33003KT P6SM VCFG BKN040 BKN100
     FM182100 33006KT P6SM VCSH BKN040 OVC100 PROB30 1903/1906 5SM
      -RASN BKN025 OVC070
      AMD NOT SKED=

USA.gov is the U.S. government's official web portal to all federal, state and local government web resources and services.